Home > Weather > Independence > Past weeks

Flag for USA Past Weather in Independence, Missouri, USA — Yesterday and Last 2 Weeks

Now
84 °F

Sunny.


Feels Like: 87 °F
Forecast: 70 / 87 °F
Wind: 6 mph from East

Location: Lee's Summit Municipal Airport

Current Time: Jul 26, 2016 at 3:07:48 PM

Latest Report: Jul 26, 2016 at 1:53 PM


Visibility: 10 mi

Pressure: 30.01 "Hg

Humidity: 57%

Dew Point: 67 °F

Location of IndependenceLocation

Past Weather in Independence — Graph

°F

Independence Temperature Yesterday

Maximum temperature yesterday: 84 °F (at 4:53 PM)
Minimum temperature yesterday: 73 °F (at 3:53 AM)
Average temperature yesterday: 77 °F

High & Low Weather Summary for the Past Weeks

 TemperatureHumidityPressure
High98 °F (Jul 21, 3:53 PM)100% (Jul 14, 2:55 AM)30.19 "Hg (Jul 14, 2:55 AM)
Low66 °F (Jul 12, 6:00 AM)43% (Jul 23, 1:53 PM)29.73 "Hg (Jul 11, 5:53 PM)
Average83 °F71%29.99 "Hg
* Reported Jul 11 1:53 PM — Jul 26 1:53 PM, Independence, Weather by CustomWeather, © 2016

Note: Actual official high and low records may vary slightly from our data, if they occured in-between our weather recording intervals... More about our weather records

Advertising

Independence Weather History for the Previous 24 Hours

Scroll right to see more
 ConditionsComfort  
Time TempWeatherWind HumidityBarometerVisibility
1:53 PM
Tue, Jul 26
84 °FSunny.6 mph57%30.01 "Hg10 mi
12:53 PM84 °FPassing clouds.10 mph59%30.03 "Hg10 mi
11:53 AM82 °FPassing clouds.9 mph60%30.04 "Hg10 mi
10:53 AM81 °FPassing clouds.8 mph65%30.05 "Hg10 mi
9:53 AM79 °FSunny.9 mph72%30.06 "Hg10 mi
8:53 AM77 °FSunny.5 mph82%30.06 "Hg10 mi
7:53 AM74 °FSunny.7 mph85%30.05 "Hg10 mi
6:53 AM71 °FClear.6 mph90%30.04 "Hg10 mi
5:53 AM71 °FClear.5 mph93%30.03 "Hg10 mi
4:53 AM70 °FClear.5 mph93%30.03 "Hg10 mi
3:53 AM73 °FClear.3 mph88%30.02 "Hg10 mi
2:53 AM74 °FClear.3 mph85%30.02 "Hg10 mi
1:53 AM75 °FClear.3 mph82%30.03 "Hg10 mi
12:53 AM76 °FClear.5 mph80%30.03 "Hg10 mi
11:53 PM
Mon, Jul 25
77 °FClear.5 mph82%30.03 "Hg10 mi
10:53 PM78 °FClear.3 mph76%30.04 "Hg10 mi
9:53 PM79 °FClear.3 mph72%30.04 "Hg10 mi
8:53 PM80 °FSunny.3 mph67%30.03 "Hg10 mi
7:53 PM81 °FSunny.5 mph69%30.01 "Hg10 mi
6:53 PM81 °FSunny.6 mph67%30.00 "Hg10 mi
5:53 PM83 °FPassing clouds.12 mph61%30.00 "Hg10 mi
4:53 PM84 °FPartly sunny.13 mph67%29.99 "Hg10 mi
3:53 PM81 °FPassing clouds.10 mph74%29.99 "Hg10 mi
Weather by CustomWeather, © 2016

See weather overviewHow to use our weather pages